• în Republica Moldova
  • Lista ţărilor
  • Pe 7 zile
  • Temperatura apei
  • Hartă satelitară
  • Meteo pe hartă
  • Widget-uri
  • user-avatar
    Intrare

    Meteo pe oră la Algiers

    Astăzi, 21 Mai, Luni

    Timp Temperatura Precipitaţii Vânt Presiune Umiditate
    00:00 +17°C° 0 mm 2 m/s 746 mmHg 93%
    01:00 +18°C° 0 mm 1 m/s 746 mmHg 93%
    02:00 +18°C° 0 mm 1 m/s 746 mmHg 92%
    03:00 +18°C° 0 mm 1 m/s 746 mmHg 91%
    04:00 +18°C° 0 mm 1 m/s 746 mmHg 89%
    05:00 +18°C° 0 mm 1 m/s 746 mmHg 87%
    06:00 +18°C° 0 mm 1 m/s 746 mmHg 85%
    07:00 +20°C° 0 mm 1 m/s 746 mmHg 78%
    08:00 +21°C° 0 mm 1 m/s 746 mmHg 72%
    09:00 +22°C° 0 mm 1 m/s 746 mmHg 65%
    10:00 +23°C° 0,1 mm 1 m/s 746 mmHg 64%
    11:00 +23°C° 0,1 mm 2 m/s 746 mmHg 62%
    12:00 +24°C° 0,1 mm 3 m/s 746 mmHg 61%
    13:00 +24°C° 0,1 mm 3 m/s 746 mmHg 62%
    14:00 +24°C° 0,1 mm 3 m/s 746 mmHg 64%
    15:00 +24°C° 0,1 mm 3 m/s 745 mmHg 65%
    16:00 +22°C° 0,2 mm 3 m/s 745 mmHg 70%
    17:00 +21°C° 0,2 mm 3 m/s 746 mmHg 74%
    18:00 +20°C° 0,2 mm 3 m/s 746 mmHg 79%
    19:00 +20°C° 0,1 mm 3 m/s 746 mmHg 81%
    20:00 +19°C° 0,1 mm 2 m/s 746 mmHg 83%
    21:00 +18°C° 0,1 mm 2 m/s 747 mmHg 86%
    22:00 +18°C° 0 mm 2 m/s 747 mmHg 85%
    23:00 +18°C° 0 mm 2 m/s 747 mmHg 85%

    Mâine, 22 Mai, Marţi

    Timp Temperatura Precipitaţii Vânt Presiune Umiditate
    00:00 +19°C° 0 mm 1 m/s 746 mmHg 84%
    01:00 +19°C° 0 mm 1 m/s 746 mmHg 83%
    02:00 +19°C° 0 mm 1 m/s 746 mmHg 82%
    03:00 +19°C° 0 mm 1 m/s 746 mmHg 81%
    04:00 +19°C° 0 mm 1 m/s 747 mmHg 78%
    05:00 +20°C° 0 mm 1 m/s 747 mmHg 75%
    06:00 +20°C° 0 mm 1 m/s 747 mmHg 73%
    07:00 +22°C° 0 mm 1 m/s 747 mmHg 67%
    08:00 +23°C° 0 mm 1 m/s 747 mmHg 61%
    09:00 +24°C° 0 mm 1 m/s 748 mmHg 55%
    10:00 +25°C° 0 mm 2 m/s 748 mmHg 52%
    11:00 +26°C° 0 mm 2 m/s 748 mmHg 48%
    12:00 +27°C° 0 mm 2 m/s 748 mmHg 45%
    13:00 +27°C° 0 mm 3 m/s 748 mmHg 46%
    14:00 +27°C° 0 mm 3 m/s 748 mmHg 47%
    15:00 +27°C° 0 mm 3 m/s 748 mmHg 47%
    16:00 +26°C° 0 mm 3 m/s 748 mmHg 52%
    17:00 +25°C° 0 mm 3 m/s 748 mmHg 56%
    18:00 +22°C° 0 mm 3 m/s 748 mmHg 61%
    19:00 +21°C° 0 mm 3 m/s 749 mmHg 64%
    20:00 +20°C° 0 mm 2 m/s 749 mmHg 68%
    21:00 +19°C° 0 mm 2 m/s 750 mmHg 72%
    22:00 +19°C° 0 mm 2 m/s 750 mmHg 70%
    23:00 +19°C° 0 mm 2 m/s 750 mmHg 69%

    Poimâine, 23 Mai, Miercuri

    Timp Temperatura Precipitaţii Vânt Presiune Umiditate
    00:00 +19°C° 0 mm 2 m/s 750 mmHg 67%
    01:00 +18°C° 0 mm 2 m/s 750 mmHg 65%
    02:00 +18°C° 0 mm 2 m/s 749 mmHg 62%
    03:00 +18°C° 0 mm 2 m/s 749 mmHg 59%
    04:00 +19°C° 0 mm 2 m/s 749 mmHg 58%
    05:00 +20°C° 0 mm 2 m/s 750 mmHg 57%
    06:00 +21°C° 0 mm 3 m/s 750 mmHg 55%
    07:00 +24°C° 0 mm 3 m/s 750 mmHg 48%
    08:00 +26°C° 0 mm 3 m/s 750 mmHg 42%
    09:00 +28°C° 0 mm 3 m/s 750 mmHg 35%
    10:00 +29°C° 0 mm 4 m/s 750 mmHg 33%
    11:00 +30°C° 0 mm 4 m/s 750 mmHg 32%
    12:00 +32°C° 0 mm 5 m/s 750 mmHg 30%
    13:00 +32°C° 0 mm 5 m/s 750 mmHg 32%
    14:00 +32°C° 0 mm 5 m/s 749 mmHg 34%
    15:00 +32°C° 0 mm 6 m/s 749 mmHg 35%
    16:00 +30°C° 0 mm 5 m/s 749 mmHg 41%
    17:00 +29°C° 0 mm 5 m/s 749 mmHg 46%
    18:00 +27°C° 0 mm 5 m/s 749 mmHg 52%
    19:00 +26°C° 0 mm 5 m/s 749 mmHg 54%
    20:00 +25°C° 0 mm 4 m/s 749 mmHg 56%
    21:00 +23°C° 0 mm 4 m/s 750 mmHg 58%
    22:00 +23°C° 0 mm 4 m/s 749 mmHg 56%
    23:00 +23°C° 0 mm 4 m/s 749 mmHg 54%

    24 Mai, Joi

    Timp Temperatura Precipitaţii Vânt Presiune Umiditate
    00:00 +23°C° 0 mm 5 m/s 749 mmHg 51%
    01:00 +23°C° 0 mm 5 m/s 748 mmHg 50%
    02:00 +23°C° 0 mm 5 m/s 748 mmHg 49%
    03:00 +23°C° 0 mm 5 m/s 748 mmHg 48%
    04:00 +25°C° 0 mm 5 m/s 747 mmHg 49%
    05:00 +25°C° 0 mm 5 m/s 747 mmHg 51%
    06:00 +26°C° 0 mm 6 m/s 747 mmHg 52%
    07:00 +28°C° 0 mm 6 m/s 747 mmHg 46%
    08:00 +32°C° 0 mm 6 m/s 748 mmHg 39%
    09:00 +34°C° 0 mm 6 m/s 748 mmHg 33%
    10:00 +36°C° 0 mm 6 m/s 747 mmHg 30%
    11:00 +38°C° 0 mm 6 m/s 747 mmHg 27%
    12:00 +39°C° 0 mm 7 m/s 747 mmHg 25%
    13:00 +39°C° 0 mm 7 m/s 746 mmHg 23%
    14:00 +40°C° 0 mm 7 m/s 746 mmHg 22%
    15:00 +40°C° 0 mm 7 m/s 746 mmHg 20%
    16:00 +38°C° 0 mm 7 m/s 745 mmHg 25%
    17:00 +35°C° 0 mm 7 m/s 745 mmHg 30%
    18:00 +34°C° 0 mm 7 m/s 745 mmHg 36%
    19:00 +33°C° 0 mm 7 m/s 745 mmHg 34%
    20:00 +32°C° 0 mm 7 m/s 746 mmHg 33%
    21:00 +32°C° 0 mm 7 m/s 746 mmHg 31%
    22:00 +30°C° 0 mm 6 m/s 746 mmHg 34%
    23:00 +29°C° 0 mm 6 m/s 746 mmHg 36%

    25 Mai, Vineri

    Timp Temperatura Precipitaţii Vânt Presiune Umiditate
    00:00 +28°C° 0 mm 5 m/s 745 mmHg 38%
    01:00 +27°C° 0 mm 5 m/s 745 mmHg 42%
    02:00 +27°C° 0 mm 4 m/s 745 mmHg 46%
    03:00 +26°C° 0 mm 4 m/s 745 mmHg 50%
    04:00 +26°C° 0 mm 4 m/s 745 mmHg 52%
    05:00 +26°C° 0 mm 3 m/s 746 mmHg 55%
    06:00 +26°C° 0 mm 3 m/s 746 mmHg 57%
    07:00 +28°C° 0 mm 3 m/s 746 mmHg 50%
    08:00 +30°C° 0 mm 3 m/s 746 mmHg 42%
    09:00 +34°C° 0 mm 3 m/s 747 mmHg 35%
    10:00 +34°C° 0 mm 3 m/s 746 mmHg 33%
    11:00 +35°C° 0 mm 4 m/s 746 mmHg 32%
    12:00 +36°C° 0 mm 4 m/s 746 mmHg 30%
    13:00 +36°C° 0 mm 5 m/s 745 mmHg 31%
    14:00 +36°C° 0 mm 5 m/s 745 mmHg 32%
    15:00 +36°C° 0 mm 5 m/s 745 mmHg 33%
    16:00 +35°C° 0 mm 5 m/s 744 mmHg 37%
    17:00 +34°C° 0 mm 5 m/s 744 mmHg 41%
    18:00 +33°C° 0 mm 5 m/s 744 mmHg 45%
    19:00 +32°C° 0 mm 5 m/s 744 mmHg 41%
    20:00 +30°C° 0 mm 5 m/s 744 mmHg 37%
    21:00 +30°C° 0 mm 6 m/s 744 mmHg 34%
    22:00 +29°C° 0 mm 6 m/s 744 mmHg 33%
    23:00 +29°C° 0 mm 5 m/s 744 mmHg 32%

    26 Mai, Sâmbătă

    Timp Temperatura Precipitaţii Vânt Presiune Umiditate
    00:00 +29°C° 0 mm 5 m/s 744 mmHg 32%
    01:00 +28°C° 0,1 mm 5 m/s 743 mmHg 35%
    02:00 +28°C° 0,1 mm 4 m/s 743 mmHg 38%
    03:00 +27°C° 0,1 mm 4 m/s 743 mmHg 41%
    04:00 +27°C° 0,1 mm 3 m/s 744 mmHg 43%
    05:00 +27°C° 0,1 mm 3 m/s 744 mmHg 45%
    06:00 +27°C° 0,1 mm 3 m/s 744 mmHg 47%
    07:00 +30°C° 0 mm 3 m/s 744 mmHg 40%
    08:00 +34°C° 0 mm 4 m/s 744 mmHg 33%
    09:00 +36°C° 0 mm 5 m/s 744 mmHg 26%
    10:00 +37°C° 0 mm 5 m/s 744 mmHg 26%
    11:00 +39°C° 0 mm 5 m/s 744 mmHg 26%
    12:00 +40°C° 0 mm 5 m/s 744 mmHg 26%
    13:00 +39°C° 0 mm 5 m/s 743 mmHg 28%
    14:00 +38°C° 0 mm 6 m/s 743 mmHg 30%
    15:00 +36°C° 0 mm 6 m/s 743 mmHg 33%
    16:00 +34°C° 0 mm 6 m/s 743 mmHg 40%
    17:00 +32°C° 0 mm 6 m/s 743 mmHg 48%
    18:00 +29°C° 0 mm 5 m/s 743 mmHg 55%
    19:00 +28°C° 0 mm 5 m/s 743 mmHg 61%
    20:00 +26°C° 0 mm 5 m/s 744 mmHg 66%
    21:00 +25°C° 0 mm 5 m/s 745 mmHg 72%
    22:00 +23°C° 0 mm 5 m/s 745 mmHg 75%
    23:00 +23°C° 0 mm 4 m/s 745 mmHg 77%
    Arată mai mult